| time (UTC) | temp C | wind direction | speed KPH | gust KPH | rain 1hr cm | rain 24hr cm | rain mn cm | humidity % | barometer mb |
| 20260506071515 | 11 | 228 | 9.7 | 17.7 | 0.00 | 0.84 | 0.00 | 74 | 1007.2 |
| 20260506070607 | 11 | 214 | 11.3 | 22.5 | 0.00 | 0.84 | 0.00 | 74 | 1007.2 |
| 20260506061542 | 11 | 242 | 6.4 | 11.3 | 0.00 | 0.84 | 0.00 | 76 | 1007.2 |
| 20260506060540 | 11 | 227 | 4.8 | 6.4 | 0.00 | 0.84 | 0.00 | 77 | 1007.1 |
| 20260506050607 | 10 | 248 | 1.6 | 9.7 | 0.00 | 0.84 | 0.00 | 80 | 1006.6 |
| 20260506044556 | 10 | 244 | 3.2 | 6.4 | 0.00 | 0.84 | 0.00 | 81 | 1006.5 |
| 20260506043554 | 9 | 243 | 3.2 | 6.4 | 0.00 | 0.84 | 0.00 | 82 | 1006.5 |
| 20260506042551 | 9 | 218 | 3.2 | 6.4 | 0.00 | 0.84 | 0.00 | 82 | 1006.5 |
| 20260506041542 | 10 | 0.0 | 3.2 | 0.00 | 0.84 | 0.00 | 81 | 1006.3 | |
| 20260506040540 | 10 | 206 | 1.6 | 6.4 | 0.00 | 0.84 | 0.00 | 80 | 1006.3 |
| 20260506035531 | 10 | 248 | 1.6 | 6.4 | 0.00 | 0.84 | 0.00 | 78 | 1006.2 |
| 20260506034529 | 10 | 253 | 3.2 | 6.4 | 0.00 | 0.84 | 0.00 | 80 | 1006.1 |
| 20260506033520 | 10 | 274 | 3.2 | 6.4 | 0.00 | 0.84 | 0.00 | 80 | 1006.2 |
| 20260506032517 | 10 | 0.0 | 0.0 | 0.00 | 0.84 | 0.00 | 80 | 1006.2 | |
| 20260506031515 | 10 | 263 | 3.2 | 6.4 | 0.00 | 0.84 | 0.00 | 79 | 1006.2 |
| 20260506030607 | 11 | 290 | 1.6 | 6.4 | 0.00 | 0.84 | 0.00 | 77 | 1006.3 |
| 20260506025605 | 11 | 292 | 6.4 | 11.3 | 0.00 | 0.84 | 0.00 | 75 | 1006.2 |
| 20260506024556 | 11 | 258 | 4.8 | 9.7 | 0.00 | 0.84 | 0.00 | 75 | 1006.2 |
| 20260506023554 | 11 | 260 | 4.8 | 11.3 | 0.00 | 0.84 | 0.00 | 74 | 1006.3 |
| 20260506022551 | 11 | 267 | 3.2 | 6.4 | 0.00 | 0.84 | 0.00 | 77 | 1006.1 |
| 20260506021543 | 11 | 293 | 0.0 | 3.2 | 0.00 | 0.84 | 0.00 | 77 | 1006.1 |
| 20260506020541 | 11 | 339 | 1.6 | 6.4 | 0.00 | 0.84 | 0.00 | 76 | 1006.0 |
| 20260506015532 | 11 | 315 | 3.2 | 6.4 | 0.00 | 0.84 | 0.00 | 77 | 1005.8 |
| 20260506014530 | 11 | 309 | 3.2 | 9.7 | 0.00 | 0.84 | 0.00 | 76 | 1005.9 |
| 20260506013527 | 11 | 0.0 | 3.2 | 0.00 | 0.84 | 0.00 | 79 | 1005.9 | |
| 20260506012519 | 11 | 135 | 0.0 | 3.2 | 0.00 | 0.84 | 0.00 | 80 | 1006.0 |
| 20260506011516 | 11 | 113 | 1.6 | 3.2 | 0.00 | 0.84 | 0.00 | 79 | 1006.0 |
| 20260506010608 | 11 | 113 | 0.0 | 3.2 | 0.00 | 0.84 | 0.00 | 79 | 1006.0 |
| 20260506005606 | 11 | 127 | 1.6 | 9.7 | 0.00 | 0.84 | 0.00 | 82 | 1006.1 |
| 20260506004604 | 10 | 0.0 | 0.0 | 0.00 | 0.84 | 0.00 | 85 | 1006.1 | |
| 20260506003555 | 10 | 211 | 1.6 | 3.2 | 0.00 | 0.84 | 0.00 | 85 | 1006.3 |
| 20260506002552 | 11 | 180 | 1.6 | 3.2 | 0.00 | 0.84 | 0.00 | 84 | 1006.2 |
| 20260506001544 | 11 | 105 | 1.6 | 6.4 | 0.00 | 0.84 | 0.00 | 85 | 1006.4 |
| 20260506000542 | 11 | 0.0 | 0.0 | 0.00 | 0.84 | 0.00 | 81 | 1006.3 | |
| 20260505235539 | 11 | 283 | 1.6 | 3.2 | 0.00 | 0.84 | 0.84 | 82 | 1006.3 |
| 20260505234531 | 11 | 262 | 1.6 | 6.4 | 0.00 | 0.84 | 0.84 | 84 | 1006.4 |
| 20260505233528 | 11 | 302 | 1.6 | 3.2 | 0.00 | 0.84 | 0.84 | 87 | 1006.4 |
| 20260505232520 | 11 | 0 | 0.0 | 3.2 | 0.00 | 0.84 | 0.84 | 88 | 1006.5 |
| 20260505231518 | 11 | 230 | 1.6 | 3.2 | 0.00 | 0.84 | 0.84 | 88 | 1006.3 |
| 20260505230515 | 11 | 248 | 0.0 | 3.2 | 0.00 | 0.84 | 0.84 | 86 | 1006.3 |
| 20260505225607 | 11 | 297 | 1.6 | 3.2 | 0.00 | 0.84 | 0.84 | 85 | 1006.1 |
| 20260505224604 | 11 | 230 | 1.6 | 3.2 | 0.00 | 0.84 | 0.84 | 84 | 1006.5 |
| 20260505223557 | 12 | 208 | 1.6 | 3.2 | 0.00 | 0.84 | 0.84 | 81 | 1006.7 |
| 20260505222554 | 12 | 231 | 1.6 | 3.2 | 0.00 | 0.84 | 0.84 | 80 | 1006.8 |
| 20260505221551 | 12 | 267 | 3.2 | 6.4 | 0.00 | 0.84 | 0.84 | 82 | 1006.8 |
| 20260505220543 | 12 | 236 | 3.2 | 3.2 | 0.00 | 0.84 | 0.84 | 81 | 1007.2 |
| 20260505215540 | 12 | 229 | 4.8 | 6.4 | 0.00 | 0.84 | 0.84 | 80 | 1007.1 |
| 20260505214533 | 12 | 225 | 1.6 | 6.4 | 0.00 | 0.84 | 0.84 | 80 | 1007.1 |
| 20260505213530 | 12 | 228 | 1.6 | 6.4 | 0.00 | 0.84 | 0.84 | 82 | 1007.2 |
| 20260505212527 | 11 | 234 | 4.8 | 9.7 | 0.00 | 0.84 | 0.84 | 84 | 1007.2 |
| 20260505211519 | 11 | 233 | 4.8 | 6.4 | 0.00 | 0.84 | 0.84 | 85 | 1007.2 |
| 20260505210516 | 11 | 189 | 3.2 | 6.4 | 0.00 | 0.84 | 0.84 | 83 | 1006.9 |
| 20260505205608 | 12 | 233 | 6.4 | 11.3 | 0.00 | 0.84 | 0.84 | 83 | 1006.9 |
| 20260505204605 | 12 | 229 | 4.8 | 6.4 | 0.00 | 0.84 | 0.84 | 82 | 1006.7 |
| 20260505203603 | 12 | 248 | 3.2 | 6.4 | 0.00 | 0.84 | 0.84 | 83 | 1006.8 |
| 20260505203036 | 12 | 236 | 3.2 | 6.4 | 0.00 | 0.84 | 0.84 | 83 | 1006.7 |
| 20260505202034 | 11 | 234 | 3.2 | 6.4 | 0.00 | 0.89 | 0.84 | 85 | 1006.6 |
| 20260505201031 | 11 | 190 | 1.6 | 6.4 | 0.00 | 0.99 | 0.84 | 85 | 1006.5 |
| 20260505200029 | 12 | 244 | 1.6 | 3.2 | 0.00 | 0.99 | 0.84 | 84 | 1006.2 |
| 20260505195026 | 12 | 224 | 1.6 | 3.2 | 0.00 | 0.99 | 0.84 | 83 | 1005.9 |
| 20260505194023 | 12 | 0.0 | 0.0 | 0.00 | 1.02 | 0.84 | 82 | 1005.7 | |
| 20260505193021 | 12 | 243 | 1.6 | 3.2 | 0.00 | 1.02 | 0.84 | 79 | 1005.6 |
| 20260505192018 | 12 | 295 | 4.8 | 9.7 | 0.00 | 1.02 | 0.84 | 79 | 1005.6 |
| 20260505191016 | 12 | 255 | 6.4 | 12.9 | 0.00 | 1.02 | 0.84 | 81 | 1005.6 |
| 20260505190113 | 12 | 248 | 4.8 | 6.4 | 0.00 | 1.02 | 0.84 | 81 | 1005.8 |
| 20260505185110 | 12 | 261 | 3.2 | 6.4 | 0.00 | 1.02 | 0.84 | 83 | 1005.7 |
| 20260505184107 | 12 | 241 | 3.2 | 6.4 | 0.00 | 1.02 | 0.84 | 84 | 1005.6 |
| 20260505183104 | 12 | 237 | 4.8 | 9.7 | 0.00 | 1.02 | 0.84 | 84 | 1005.6 |
| 20260505182101 | 11 | 248 | 4.8 | 6.4 | 0.00 | 1.02 | 0.84 | 87 | 1005.6 |
| 20260505181059 | 11 | 238 | 3.2 | 6.4 | 0.03 | 1.02 | 0.84 | 90 | 1005.6 |
| 20260505180056 | 11 | 231 | 3.2 | 6.4 | 0.03 | 1.02 | 0.84 | 91 | 1005.5 |
| 20260505175054 | 11 | 235 | 0.0 | 3.2 | 0.03 | 1.02 | 0.84 | 92 | 1005.5 |
| 20260505174051 | 11 | 223 | 1.6 | 3.2 | 0.05 | 1.02 | 0.84 | 91 | 1005.7 |
| 20260505173048 | 11 | 205 | 1.6 | 6.4 | 0.05 | 1.02 | 0.84 | 90 | 1005.6 |
| 20260505172046 | 11 | 237 | 9.7 | 17.7 | 0.10 | 1.02 | 0.84 | 90 | 1005.5 |
| 20260505171043 | 11 | 330 | 4.8 | 9.7 | 0.10 | 0.99 | 0.81 | 91 | 1005.7 |
| 20260505170041 | 11 | 348 | 3.2 | 6.4 | 0.13 | 0.99 | 0.81 | 91 | 1005.9 |
| 20260505165038 | 11 | 248 | 1.6 | 6.4 | 0.76 | 0.99 | 0.81 | 91 | 1006.1 |
| 20260505164036 | 10 | 259 | 4.8 | 9.7 | 0.79 | 0.97 | 0.79 | 89 | 1006.1 |
| 20260505163033 | 10 | 293 | 4.8 | 11.3 | 0.79 | 0.97 | 0.79 | 89 | 1006.0 |
| 20260505162030 | 9 | 290 | 8.0 | 11.3 | 0.76 | 0.94 | 0.76 | 87 | 1006.1 |
| 20260505161028 | 10 | 319 | 1.6 | 6.4 | 0.71 | 0.89 | 0.71 | 88 | 1006.1 |
| 20260505153017 | 17 | 29 | 6.4 | 17.7 | 0.00 | 0.18 | 0.00 | 64 | 1005.0 |
| 20260505152014 | 17 | 30 | 4.8 | 17.7 | 0.00 | 0.18 | 0.00 | 66 | 1005.2 |
| 20260505151112 | 17 | 103 | 4.8 | 14.5 | 0.00 | 0.18 | 0.00 | 66 | 1005.1 |
| 20260505150109 | 18 | 125 | 4.8 | 12.9 | 0.00 | 0.18 | 0.00 | 66 | 1005.0 |
| 20260505125036 | 19 | 354 | 3.2 | 12.9 | 0.00 | 0.20 | 0.00 | 60 | 1006.1 |
| 20260505124033 | 19 | 22 | 4.8 | 17.7 | 0.00 | 0.20 | 0.00 | 62 | 1006.0 |
| 20260505123030 | 19 | 114 | 4.8 | 9.7 | 0.00 | 0.20 | 0.00 | 61 | 1006.3 |
| 20260505122027 | 18 | 27 | 6.4 | 14.5 | 0.00 | 0.20 | 0.00 | 65 | 1006.3 |
| 20260505121024 | 19 | 68 | 1.6 | 9.7 | 0.00 | 0.20 | 0.00 | 62 | 1006.4 |
| 20260505120022 | 18 | 107 | 3.2 | 6.4 | 0.00 | 0.20 | 0.00 | 64 | 1006.3 |
| 20260505115019 | 18 | 136 | 3.2 | 6.4 | 0.00 | 0.20 | 0.00 | 66 | 1006.5 |
| 20260505114016 | 19 | 76 | 3.2 | 12.9 | 0.00 | 0.20 | 0.00 | 60 | 1006.6 |
| 20260505113114 | 17 | 25 | 4.8 | 11.3 | 0.00 | 0.20 | 0.00 | 64 | 1006.7 |
| 20260505112112 | 17 | 17 | 1.6 | 6.4 | 0.00 | 0.20 | 0.00 | 68 | 1006.8 |
| 20260505111109 | 17 | 9 | 3.2 | 9.7 | 0.00 | 0.20 | 0.00 | 69 | 1007.0 |
| 20260505110106 | 17 | 135 | 0.0 | 3.2 | 0.00 | 0.20 | 0.00 | 69 | 1007.1 |
| 20260505102056 | 16 | 81 | 4.8 | 14.5 | 0.00 | 0.20 | 0.00 | 76 | 1007.2 |
| 20260505101053 | 17 | 113 | 3.2 | 9.7 | 0.00 | 0.20 | 0.00 | 69 | 1007.1 |
| 20260505100051 | 17 | 100 | 3.2 | 9.7 | 0.00 | 0.20 | 0.00 | 68 | 1006.8 |
| 20260505095048 | 18 | 125 | 1.6 | 6.4 | 0.00 | 0.20 | 0.00 | 66 | 1006.7 |
| 20260505094045 | 16 | 257 | 0.0 | 3.2 | 0.00 | 0.20 | 0.00 | 74 | 1006.7 |
| 20260505093043 | 15 | 295 | 6.4 | 11.3 | 0.00 | 0.20 | 0.00 | 78 | 1006.7 |
| 20260505092039 | 14 | 304 | 8.0 | 14.5 | 0.00 | 0.20 | 0.00 | 80 | 1006.7 |
| 20260505091037 | 13 | 304 | 6.4 | 12.9 | 0.00 | 0.20 | 0.00 | 83 | 1006.7 |
| 20260505090034 | 13 | 197 | 1.6 | 6.4 | 0.00 | 0.20 | 0.00 | 83 | 1007.2 |
| 20260505085031 | 13 | 143 | 3.2 | 11.3 | 0.00 | 0.20 | 0.00 | 80 | 1007.2 |
| 20260505084029 | 14 | 136 | 4.8 | 14.5 | 0.00 | 0.20 | 0.00 | 77 | 1007.5 |
| 20260505083026 | 15 | 117 | 3.2 | 14.5 | 0.00 | 0.20 | 0.00 | 73 | 1007.1 |
| 20260505082024 | 16 | 114 | 1.6 | 9.7 | 0.00 | 0.20 | 0.00 | 72 | 1006.8 |
| 20260505081021 | 16 | 113 | 1.6 | 6.4 | 0.00 | 0.20 | 0.00 | 72 | 1006.8 |
| 20260505080018 | 15 | 0 | 1.6 | 6.4 | 0.00 | 0.20 | 0.00 | 74 | 1006.8 |
| 20260505075016 | 15 | 316 | 4.8 | 9.7 | 0.00 | 0.20 | 0.00 | 75 | 1006.8 |
| 20260505074113 | 15 | 355 | 4.8 | 9.7 | 0.00 | 0.20 | 0.00 | 71 | 1006.8 |
| 20260505073111 | 15 | 128 | 0.0 | 3.2 | 0.00 | 0.20 | 0.00 | 73 | 1006.9 |
| 20260505072108 | 14 | 139 | 6.4 | 11.3 | 0.00 | 0.20 | 0.00 | 74 | 1006.9 |